Location: Dennehotso
(36.8461°N, 109.8435°W)
Time: 23:07:13
(UTC+00:00)

ISS - Visible Passes

Search period start: 05 March 2021 00:00
Search period end: 15 March 2021 00:00
Orbit: 417 x 422 km, 51.6° (Epoch: 05 March)

Date Brightness Start Highest point End Pass type
(mag) Time Alt. Az. Time Alt. Az. Time Alt. Az.
06 Mar -0.8 12:31:14 10° N 12:32:01 11° NNE 12:32:48 10° NNE visible
08 Mar -1.3 12:31:47 10° NNW 12:34:18 19° NNE 12:36:49 10° ENE visible
09 Mar -1.0 11:45:31 12° N 11:46:36 14° NNE 11:48:28 10° ENE visible
10 Mar -2.8 12:33:08 10° NW 12:36:20 46° NE 12:39:34 10° ESE visible
11 Mar -2.0 11:47:55 25° N 11:48:45 28° NNE 11:51:42 10° E visible
12 Mar -0.5 11:02:51 14° ENE 11:02:51 14° ENE 11:03:36 10° ENE visible
12 Mar -3.6 12:35:50 18° WNW 12:38:06 51° SW 12:41:21 10° SSE visible
13 Mar -3.6 11:50:57 70° ESE 11:50:57 70° ESE 11:53:58 10° SE visible
14 Mar -0.5 11:06:16 10° ESE 11:06:16 10° ESE 11:06:20 10° ESE visible
14 Mar -2.0 12:39:18 15° WSW 12:39:36 15° SW 12:41:38 10° SSW visible
